FW1218 Weather Reports


time (UTC)temp
C
wind
direction
speed
KPH
gust
KPH
rain 1hr
cm
rain 24hr
cm
rain mn
cm
humidity
%
barometer
mb
20260505070016 16 259 1.6 8.0 0.00 0.00 0.00 64 1008.8
20260505064514 17 277 4.8 11.3 0.00 0.00 0.00 63 1009.0
20260505063014 16 260 3.2 14.5 0.00 0.00 0.00 63 1009.1
20260505061511 16 243 1.6 8.0 0.00 0.00 0.00 63 1009.2
20260505060023 16 250 3.2 11.3 0.00 0.00 0.00 63 1009.2
20260505054512 16 247 1.6 4.8 0.00 0.00 0.00 63 1009.3
20260505053005 17 242 1.6 11.3 0.00 0.00 0.00 60 1009.2
20260505051504 17 169 8.0 12.9 0.00 0.00 0.00 60 1009.1
20260505041558 17 266 8.0 20.9 0.00 0.00 0.00 57 1009.1
20260505040056 17 259 8.0 20.9 0.00 0.00 0.00 56 1009.1
20260505034555 17 158 6.4 20.9 0.00 0.00 0.00 56 1009.0
20260505033112 17 273 6.4 20.9 0.00 0.00 0.00 55 1009.0
20260505031555 17 323 9.7 19.3 0.00 0.00 0.00 55 1009.0
20260505030053 17 219 6.4 14.5 0.00 0.00 0.00 55 1008.8
20260505024557 18 276 8.0 16.1 0.00 0.00 0.00 54 1009.1
20260505023104 17 286 9.7 17.7 0.00 0.00 0.00 55 1009.1
20260505021552 17 300 6.4 14.5 0.00 0.00 0.00 55 1009.0
20260505020053 17 243 4.8 12.9 0.00 0.00 0.00 55 1009.0
20260505014551 17 209 0.0 6.4 0.00 0.00 0.00 55 1008.9
20260505013051 17 262 0.0 6.4 0.00 0.00 0.00 55 1009.1
20260505011558 17 264 1.6 12.9 0.00 0.00 0.00 54 1009.1
20260505010049 17 244 0.0 4.8 0.00 0.00 0.00 54 1008.7
20260505004551 17 278 0.0 9.7 0.00 0.00 0.00 53 1008.6
20260505003048 18 287 0.0 9.7 0.00 0.00 0.00 53 1008.5
20260505001548 18 291 0.0 6.4 0.00 0.00 0.00 52 1008.5
20260505000048 19 163 0.0 6.4 0.00 0.00 0.00 50 1008.4
20260504234611 20 222 0.0 8.0 0.00 0.00 0.00 47 1008.3
20260504233050 21 281 4.8 12.9 0.00 0.00 0.00 45 1008.2
20260504231553 21 269 1.6 11.3 0.00 0.00 0.00 44 1008.2
20260504230043 21 264 3.2 9.7 0.00 0.00 0.00 44 1008.4
20260504224542 22 262 4.8 16.1 0.00 0.00 0.00 42 1008.4
20260504223041 22 260 4.8 19.3 0.00 0.00 0.00 44 1008.5
20260504221542 22 279 4.8 17.7 0.00 0.00 0.00 42 1008.5
20260504220039 22 209 1.6 17.7 0.00 0.00 0.00 43 1008.5
20260504214541 22 237 6.4 24.1 0.00 0.00 0.00 41 1008.7
20260504213038 22 250 9.7 20.9 0.00 0.00 0.00 41 1008.6
20260504211539 22 283 8.0 22.5 0.00 0.00 0.00 41 1008.5
20260504210035 22 273 6.4 16.1 0.00 0.00 0.00 41 1008.5
20260504204612 22 230 4.8 19.3 0.00 0.00 0.00 42 1008.6
20260504203034 22 272 3.2 16.1 0.00 0.00 0.00 41 1008.7
20260504201528 22 250 3.2 24.1 0.00 0.00 0.00 42 1008.9
20260504200033 21 304 8.0 29.0 0.00 0.00 0.00 43 1009.2
20260504194524 21 283 11.3 25.7 0.00 0.00 0.00 42 1009.4
20260504193024 21 266 8.0 25.7 0.00 0.00 0.00 41 1009.6
20260504191519 21 279 6.4 22.5 0.00 0.00 0.00 44 1009.9
20260504190016 21 293 9.7 24.1 0.00 0.00 0.00 43 1010.1
20260504184513 21 205 8.0 25.7 0.00 0.00 0.00 42 1010.3
20260504183011 21 266 8.0 20.9 0.00 0.00 0.00 43 1010.6
20260504181510 20 243 9.7 20.9 0.00 0.00 0.00 45 1010.7
20260504180006 20 270 8.0 27.4 0.00 0.00 0.00 41 1010.9
20260504174503 20 280 8.0 17.7 0.00 0.00 0.00 44 1011.0
20260504173002 19 262 11.3 20.9 0.00 0.00 0.00 44 1011.1
20260504171559 18 249 6.4 25.7 0.00 0.00 0.00 43 1011.3
20260504081545 10 291 4.8 17.7 0.00 0.00 0.00 48 1014.4